Regional Weather Roundup
Issued by NWS

Home | Current Version | Previous Version | Graphics & Text | Print | Product List | Glossary On
Versions: 1 2 3 4 5 6 7 8 9 10 11 12 13 14 15 16 17 18 19 20 21 22 23 24 25 26 27 28 29 30 31 32 33 34 35 36 37 38 39 40 41 42 43 44 45 46 47 48 49 50
000
ASUS43 KMPX 271810
RWRMN
WEATHER ROUNDUP FOR MINNESOTA
NATIONAL WEATHER SERVICE TWIN CITIES/CHANHASSEN MN
100 PM CDT FRI MAR 27 2015


NOTE: "FAIR" INDICATES FEW OR NO CLOUDS BELOW 12,000 FEET WITH NO
SIGNIFICANT WEATHER AND/OR OBSTRUCTIONS TO VISIBILITY. N/A MEANS
CURRENT SKY AND/OR WEATHER CONDITIONS ARE NOT AVAILABLE.

MNZ060>063-068>070-271900-
   Twin Cities Metro

CITY           SKY/WX    TMP DP  RH WIND       PRES   REMARKS
TWIN CITIES    MOSUNNY   31   1  28 SW6       30.25F WCI  25
6HR MIN TEMP:  18; 6HR MAX TEMP:  32;

ST PAUL        SUNNY     31   1  28 VRB3      30.26F
CRYSTAL        SUNNY     31   1  28 S6        30.24F WCI  25
BLAINE         MOSUNNY   32   3  29 CALM      30.24
LAKEVILLE      SUNNY     27   7  43 SW3       30.25F
EDEN PRAIRIE   SUNNY     32   6  33 W6        30.24F WCI  26
6HR MIN TEMP:  17; 6HR MAX TEMP:  32;

SOUTH ST PAUL  SUNNY     32   1  27 S3        30.25F
LAKE ELMO      FAIR      32   5  32 NW6       30.25F WCI  26
$$
MNZ001>005-007-008-013>017-022>024-027-028-271900-
   Northwest Minnesota

CITY           SKY/WX    TMP DP  RH WIND       PRES   REMARKS
BEMIDJI        MOSUNNY   31   3  30 S3        30.14F
HALLOCK        PTSUNNY   30  12  47 S12       30.14F WCI  21
ROSEAU         PTSUNNY   28  12  50 SW9       30.15F WCI  20
WARROAD        PTSUNNY   28   9  43 SW9       30.16F WCI  20
THIEF RVR FALL PTSUNNY   28  10  47 S12       30.16F WCI  18
CROOKSTON      PTSUNNY   30  10  43 SW12G18   30.17F WCI  21
FOSSTON        PTSUNNY   30   5  34 S10G18    30.15F WCI  21
DETROIT LAKES  PTSUNNY   32   5  32 S9        30.16F WCI  24
MOORHEAD       PTSUNNY   32   5  32 S10       30.17F WCI  24
PARK RAPIDS    SUNNY     32   3  29 S6        30.14F WCI  26
MAHNOMEN       FAIR      30   6  37 S8        30.15F WCI  22
$$
MNZ006-009>011-018-025>026-271900-
   North Central Minnesota

CITY           SKY/WX    TMP DP  RH WIND       PRES   REMARKS
BAUDETTE       MOSUNNY   29   6  38 S7        30.15F WCI  22
FLAG ISLAND    MOSUNNY   21  10  63 S12       30.15F WCI   9
INTL FALLS     SUNNY     27   6  41 S6        30.17F WCI  20
6HR MIN TEMP:   3; 6HR MAX TEMP:  28;

WASKISH        MOSUNNY   27  10  50 CALM      30.16F
BIG FORK       SUNNY     28   1  31 CALM      30.17F
LONGVILLE      SUNNY     30   1  29 SW3       30.17F
GRAND RAPIDS   SUNNY     27   1  33 CALM      30.18F
CRANE LAKE     SUNNY     25   1  36 S3        30.21F
ORR            SUNNY     27   0  31 SW3       30.15F
COOK           SUNNY     27   1  33 E5        30.18F WCI  21
WALKER         FAIR      28   5  37 E7        30.15F WCI  21
$$
MNZ012-019>021-037-271900-
   Northeast Minnesota

CITY           SKY/WX    TMP DP  RH WIND       PRES   REMARKS
DULUTH         MOSUNNY   26   6  42 SE6       30.19F WCI  19
6HR MIN TEMP:  10; 6HR MAX TEMP:  27;

ELY            SUNNY     27  -4  26 CALM      30.17F
HIBBING        SUNNY     29   0  28 VRB3      30.17F
EVELETH        SUNNY     28   0  29 W5        30.19F WCI  23
DULUTH HARBOR  SUNNY     27  10  50 CALM      30.27F
TWO HARBORS    SUNNY     28  16  59 S5        30.21F WCI  23
SILVER BAY     SUNNY     25   9  50 S8        30.21F WCI  16
GRAND MARAIS     N/A     20   4  50 S3        30.27F
G MARAIS ARPRT SUNNY     19  -2  38 S7        30.16F WCI  10
$$
MNZ029>031-032-039>041-046>048-054>057-064-271900-
   West Central Minnesota

CITY           SKY/WX    TMP DP  RH WIND       PRES   REMARKS
FERGUS FALLS   PTSUNNY   30   1  29 SW9       30.20F WCI  22
WHEATON        CLOUDY    28  12  50 S10       30.20F WCI  19
MORRIS         PTSUNNY   30  10  43 S6        30.19F WCI  24
ALEXANDRIA     PTSUNNY   29   6  38 SW8       30.18F WCI  21
ELBOW LAKE     FAIR      30   6  36 S7        30.18F WCI  23
WADENA         MOSUNNY   30   7  37 SW8       30.16F WCI  23
GLENWOOD       MOSUNNY   30   9  40 S7        30.20F WCI  23
APPLETON       PTSUNNY   36   3  25 SW7       30.20F
BENSON         MOSUNNY   32   9  37 W7        30.21F WCI  26
ORTONVILLE     PTSUNNY   32   9  37 SW5       30.18F WCI  27
MADISON        PTSUNNY   34   7  32 SW8       30.20F WCI  27
WILLMAR        FAIR      28   9  43 S3        30.23F
$$
MNZ033>034-036-042>043-049>051-058-059-271900-
   Central Minnesota

CITY           SKY/WX    TMP DP  RH WIND       PRES   REMARKS
ST CLOUD       SUNNY     29   1  30 VRB5      30.22F WCI  24
6HR MIN TEMP:  11; 6HR MAX TEMP:  29;

SAUK CENTRE    FAIR      29   6  37 SE3       30.20F
PAYNESVILLE    SUNNY     25   5  41 S3        30.22F
AITKIN         SUNNY     30  -4  22 CALM      30.19F
PINE RIVER     SUNNY     28   7  40 SE6       30.20F WCI  22
BRAINERD       SUNNY     29   1  30 MISG      30.20F
STAPLES        SUNNY     30   1  29 S7        30.17F WCI  23
LONG PRAIRIE   FAIR      30   5  34 CALM      30.19F
LITTLE FALLS   SUNNY     30   0  27 SW3       30.21F
LITCHFIELD     SUNNY     28   7  40 CALM      30.23F
MAPLE LAKE     SUNNY     31   8  36 W6        30.24F WCI  26
$$
MNZ037-044-045-052-053-271900-
   East Central Minnesota

CITY           SKY/WX    TMP DP  RH WIND       PRES   REMARKS
PRINCETON      SUNNY     32   1  27 CALM      30.23F
MORA           SUNNY     30   3  31 S3        30.24F
CAMBRIDGE      SUNNY     30  10  43 CALM      30.22F
RUSH CITY      SUNNY     29   6  38 W3        30.24F
MOOSE LAKE     SUNNY     30   3  31 CALM      30.20F
HINCKLEY       FAIR      30   9  40 W6        30.23F WCI  24
CLOQUET        SUNNY     27   0  31 CALM      30.20S
MCGREGOR       SUNNY     30   5  34 S7        30.21F WCI  23
$$
MNZ071>073-080-081-089-090-097-098-271900-
   Southwest Minnesota

CITY           SKY/WX    TMP DP  RH WIND       PRES   REMARKS
MONTEVIDEO     MOSUNNY   34  14  44 W5        30.22F WCI  30
GRANITE FALLS  SUNNY     32  10  40 SE6       30.23F WCI  27
CANBY          CLOUDY    33   4  28 S7        30.19F WCI  27
MARSHALL       PTSUNNY   34   7  32 S10       30.20F WCI  26
REDWOOD FALLS  SUNNY     30  10  43 CALM      30.23F
OLIVIA         MOSUNNY   28  14  54 S7        30.22F WCI  21
PIPESTONE      PTSUNNY   30   3  31 SW6       30.16F WCI  24
WINDOM         SUNNY     34   7  32 SE3       30.20F
WORTHINGTON    MOSUNNY   30   7  37 S5        30.20F WCI  25
JACKSON        SUNNY     32   3  29 CALM      30.21F
TRACY          MOSUNNY   32   9  37 CALM      30.21F
SLAYTON        MOSUNNY   31  -1  25 CALM      30.19F
$$
MNZ065>067-074>077-082>085-091>093-271900-
   South Central Minnesota

CITY           SKY/WX    TMP DP  RH WIND       PRES   REMARKS
MANKATO        SUNNY     28   5  37 CALM      30.25F
NEW ULM        SUNNY     28   7  40 CALM      30.23F
ST JAMES       SUNNY     32  10  40 S5        30.24F WCI  27
FAIRMONT       MOSUNNY   34   9  35 W5        30.22F WCI  30
GLENCOE        SUNNY     29   9  41 CALM      30.24F
FARIBAULT      SUNNY     28   3  34 CALM      30.25F
OWATONNA       SUNNY     27   9  46 CALM      30.24F
WASECA         SUNNY     27   9  46 NW3       30.26F
ALBERT LEA     SUNNY     30  10  43 NW7       30.23F WCI  23
$$
MNZ078>079-086>088-094>096-271900-
   Southeast Minnesota

CITY           SKY/WX    TMP DP  RH WIND       PRES   REMARKS
ROCHESTER      SUNNY     25  10  53 SW8       30.23F WCI  16
6HR MIN TEMP:  12; 6HR MAX TEMP:  25;

RED WING       SUNNY     30   1  29 N5        30.24F WCI  25
STANTON        SUNNY     28   6  40 W3        30.25S
DODGE CENTER   MOSUNNY   25  10  54 CALM      30.23S
WINONA         SUNNY     32  10  40 CALM      30.25F
AUSTIN         FAIR      27  10  50 SE5       30.23F WCI  21
PRESTON        SUNNY     26   8  47 NW6       30.22F WCI  19
$$
ABBREVIATIONS USED IN REMARKS
   TC - TEMPERATURES IN CELSIUS
  WCI - WIND CHILL INDEX
   HX - HEAT INDEX
  VSB - VISIBILITY
$$


USA.gov is the U.S. government's official web portal to all federal, state and local government web resources and services.